Tracking 19562 objects as of 24-Mar-2019
HD Live streaming from Space Station
objects crossing your sky now

SOICAL (CYLINDER)

Track SOICAL (CYLINDER) now!
10-day predictions
SOICAL (CYLINDER) is classified as:


NORAD ID: 4166
Int'l Code: 1969-082J
Perigee: 584.0 km
Apogee: 587.4 km
Inclination: 70.0 °
Period: 96.2 minutes
Semi major axis: 6956 km
RCS: 0.2152 m2 (medium)
Launch date: September 30, 1969
Source: United States (US)
Launch site: AIR FORCE WESTERN TEST RANGE (AFWTR)
aabbcc
Your satellite tracking list
Your tracking list is empty




NASA's NSSDC Master Catalog

Two Line Element Set (TLE):
1  4166U 69082J   19083.09230122  .00002057  00000-0  19002-3 0  9991
2  4166  69.9652  56.6886 0002462 287.2616  72.8272 14.96230039584531
Source of the keplerian elements: AFSPC